Terminal Aerodrome Forecast
Issued by NWS Omaha/Valley, NE

Home | Current Version | Previous Version | Graphics & Text | Print | Product List | Glossary On
Versions: 1 2 3 4 5 6 7 8 9 10 11 12 13 14 15 16 17 18 19 20 21 22 23 24 25 26 27 28 29 30 31 32
000
FTUS43 KOAX 011007 AAA
TAFOFK
TAF AMD
KOFK 011007Z 0110/0206 VRB03KT 3SM BR SKC
      TEMPO 0110/0113 1SM BR SCT005
     FM011300 VRB03KT P6SM SKC
     FM011600 09005KT P6SM SCT050 SCT250
     FM012100 05006KT P6SM BKN090=

USA.gov is the U.S. government's official web portal to all federal, state and local government web resources and services.